Year,Month,Day,Hour,Minute,Value (Times are PST for temperature in C)
2009,07,28,00,00,22.50
2009,07,28,00,01,22.50
2009,07,28,00,02,22.50
2009,07,28,00,03,22.40
2009,07,28,00,04,22.40
2009,07,28,00,05,22.40
2009,07,28,00,06,22.40
2009,07,28,00,07,22.40
2009,07,28,00,08,22.40
2009,07,28,00,09,22.30
2009,07,28,00,10,22.30
2009,07,28,00,11,22.30
2009,07,28,00,12,22.20
2009,07,28,00,13,22.20
2009,07,28,00,14,22.20
2009,07,28,00,15,22.10
2009,07,28,00,16,22.10
2009,07,28,00,17,22.10
2009,07,28,00,18,22.00
2009,07,28,00,19,22.00
2009,07,28,00,20,22.00
2009,07,28,00,21,21.90
2009,07,28,00,22,21.90
2009,07,28,00,23,21.90
2009,07,28,00,24,21.80
2009,07,28,00,25,21.80
2009,07,28,00,26,21.80
2009,07,28,00,27,21.70
2009,07,28,00,28,21.70
2009,07,28,00,29,21.70
2009,07,28,00,30,21.70
2009,07,28,00,31,21.60
2009,07,28,00,32,21.60
2009,07,28,00,33,21.60
2009,07,28,00,34,21.60
2009,07,28,00,35,21.60
2009,07,28,00,36,21.50
2009,07,28,00,37,21.40
2009,07,28,00,38,21.40
2009,07,28,00,39,21.30
2009,07,28,00,40,21.30
2009,07,28,00,41,21.30
2009,07,28,00,42,21.20
2009,07,28,00,43,21.00
2009,07,28,00,44,20.90
2009,07,28,00,45,20.80
2009,07,28,00,46,20.60
2009,07,28,00,47,20.50
2009,07,28,00,48,20.50
2009,07,28,00,49,20.40
2009,07,28,00,50,20.30
2009,07,28,00,51,20.20
2009,07,28,00,52,20.20
2009,07,28,00,53,20.20
2009,07,28,00,54,20.10
2009,07,28,00,55,20.00
2009,07,28,00,56,19.90
2009,07,28,00,57,19.90
2009,07,28,00,58,19.90
2009,07,28,00,59,19.80
2009,07,28,01,00,19.80
2009,07,28,01,01,19.70
2009,07,28,01,02,19.60
2009,07,28,01,03,19.50
2009,07,28,01,04,19.40
2009,07,28,01,05,19.40
2009,07,28,01,06,19.30
2009,07,28,01,07,19.20
2009,07,28,01,08,19.20
2009,07,28,01,09,19.10
2009,07,28,01,10,19.10
2009,07,28,01,11,19.10
2009,07,28,01,12,19.10
2009,07,28,01,13,18.90
2009,07,28,01,14,18.90
2009,07,28,01,15,18.90
2009,07,28,01,16,18.90
2009,07,28,01,17,18.90
2009,07,28,01,18,18.90
2009,07,28,01,19,18.80
2009,07,28,01,20,18.80
2009,07,28,01,21,18.80
2009,07,28,01,22,18.90
2009,07,28,01,23,18.90
2009,07,28,01,24,18.90
2009,07,28,01,25,18.90
2009,07,28,01,26,18.90
2009,07,28,01,27,18.90
2009,07,28,01,28,19.10
2009,07,28,01,29,19.10
2009,07,28,01,30,19.10
2009,07,28,01,31,19.10
2009,07,28,01,32,19.10
2009,07,28,01,33,19.10
2009,07,28,01,34,19.10
2009,07,28,01,35,19.10
2009,07,28,01,36,19.10
2009,07,28,01,37,19.10
2009,07,28,01,38,19.10
2009,07,28,01,39,19.10
2009,07,28,01,40,19.20
2009,07,28,01,41,19.20
2009,07,28,01,42,19.20
2009,07,28,01,43,19.30
2009,07,28,01,44,19.30
2009,07,28,01,45,19.30
2009,07,28,01,46,19.30
2009,07,28,01,47,19.30
2009,07,28,01,48,19.20
2009,07,28,01,49,19.20
2009,07,28,01,50,19.20
2009,07,28,01,51,19.10
2009,07,28,01,52,19.10
2009,07,28,01,53,19.10
2009,07,28,01,54,19.10
2009,07,28,01,55,19.10
2009,07,28,01,56,19.10
2009,07,28,01,57,19.10
2009,07,28,01,58,19.10
2009,07,28,01,59,19.10
2009,07,28,02,00,19.00
2009,07,28,02,01,18.90
2009,07,28,02,02,18.90
2009,07,28,02,03,18.90
2009,07,28,02,04,18.90
2009,07,28,02,05,18.90
2009,07,28,02,06,18.90
2009,07,28,02,07,18.90
2009,07,28,02,08,18.90
2009,07,28,02,09,18.90
2009,07,28,02,10,18.80
2009,07,28,02,11,18.80
2009,07,28,02,12,18.80
2009,07,28,02,13,18.80
2009,07,28,02,14,18.80
2009,07,28,02,15,18.80
2009,07,28,02,16,18.80
2009,07,28,02,17,18.80
2009,07,28,02,18,18.80
2009,07,28,02,19,18.80
2009,07,28,02,20,18.80
2009,07,28,02,21,18.80
2009,07,28,02,22,18.80
2009,07,28,02,23,18.80
2009,07,28,02,24,18.80
2009,07,28,02,25,18.80
2009,07,28,02,26,18.90
2009,07,28,02,27,18.90
2009,07,28,02,28,18.90
2009,07,28,02,29,18.90
2009,07,28,02,30,18.90
2009,07,28,02,31,18.90
2009,07,28,02,32,18.90
2009,07,28,02,33,18.90
2009,07,28,02,34,18.90
2009,07,28,02,35,18.90
2009,07,28,02,36,18.90
2009,07,28,02,37,18.90
2009,07,28,02,38,19.00
2009,07,28,02,39,19.10
2009,07,28,02,40,19.10
2009,07,28,02,41,19.10
2009,07,28,02,42,19.10
2009,07,28,02,43,19.10
2009,07,28,02,44,19.10
2009,07,28,02,45,19.10
2009,07,28,02,46,19.10
2009,07,28,02,47,19.10
2009,07,28,02,48,19.10
2009,07,28,02,49,19.10
2009,07,28,02,50,19.10
2009,07,28,02,51,19.10
2009,07,28,02,52,19.10
2009,07,28,02,53,19.10
2009,07,28,02,54,19.10
2009,07,28,02,55,19.10
2009,07,28,02,56,19.10
2009,07,28,02,57,19.10
2009,07,28,02,58,19.20
2009,07,28,02,59,19.20
2009,07,28,03,00,19.20
2009,07,28,03,01,19.20
2009,07,28,03,02,19.20
2009,07,28,03,03,19.20
2009,07,28,03,04,19.20
2009,07,28,03,05,19.20
2009,07,28,03,06,19.20
2009,07,28,03,07,19.20
2009,07,28,03,08,19.20
2009,07,28,03,09,19.20
2009,07,28,03,10,19.20
2009,07,28,03,11,19.20
2009,07,28,03,12,19.10
2009,07,28,03,13,19.10
2009,07,28,03,14,19.10
2009,07,28,03,15,19.10
2009,07,28,03,16,19.10
2009,07,28,03,17,19.10
2009,07,28,03,18,19.10
2009,07,28,03,19,19.10
2009,07,28,03,20,19.10
2009,07,28,03,21,19.10
2009,07,28,03,22,19.10
2009,07,28,03,23,19.10
2009,07,28,03,24,19.10
2009,07,28,03,25,19.10
2009,07,28,03,26,19.10
2009,07,28,03,27,18.90
2009,07,28,03,28,18.90
2009,07,28,03,29,18.90
2009,07,28,03,30,18.90
2009,07,28,03,31,18.90
2009,07,28,03,32,18.90
2009,07,28,03,33,18.80
2009,07,28,03,34,18.80
2009,07,28,03,35,18.80
2009,07,28,03,36,18.70
2009,07,28,03,37,18.70
2009,07,28,03,38,18.70
2009,07,28,03,39,18.60
2009,07,28,03,40,18.60
2009,07,28,03,41,18.60
2009,07,28,03,42,18.60
2009,07,28,03,43,18.60
2009,07,28,03,44,18.50
2009,07,28,03,45,18.50
2009,07,28,03,46,18.50
2009,07,28,03,47,18.50
2009,07,28,03,48,18.50
2009,07,28,03,49,18.50
2009,07,28,03,50,18.40
2009,07,28,03,51,18.40
2009,07,28,03,52,18.40
2009,07,28,03,53,18.40
2009,07,28,03,54,18.40
2009,07,28,03,55,18.40
2009,07,28,03,56,18.40
2009,07,28,03,57,18.40
2009,07,28,03,58,18.40
2009,07,28,03,59,18.40
2009,07,28,04,00,18.40
2009,07,28,04,01,18.40
2009,07,28,04,02,18.40
2009,07,28,04,03,18.40
2009,07,28,04,04,18.40
2009,07,28,04,05,18.40
2009,07,28,04,06,18.40
2009,07,28,04,07,18.40
2009,07,28,04,08,18.40
2009,07,28,04,09,18.30
2009,07,28,04,10,18.30
2009,07,28,04,11,18.30
2009,07,28,04,12,18.30
2009,07,28,04,13,18.30
2009,07,28,04,14,18.30
2009,07,28,04,15,18.30
2009,07,28,04,16,18.30
2009,07,28,04,17,18.30
2009,07,28,04,18,18.30
2009,07,28,04,19,18.30
2009,07,28,04,20,18.30
2009,07,28,04,21,18.30
2009,07,28,04,22,18.30
2009,07,28,04,23,18.30
2009,07,28,04,24,18.30
2009,07,28,04,25,18.30
2009,07,28,04,26,18.30
2009,07,28,04,27,18.30
2009,07,28,04,28,18.30
2009,07,28,04,29,18.30
2009,07,28,04,30,18.30
2009,07,28,04,31,18.30
2009,07,28,04,32,18.30
2009,07,28,04,33,18.20
2009,07,28,04,34,18.20
2009,07,28,04,35,18.20
2009,07,28,04,36,18.20
2009,07,28,04,37,18.20
2009,07,28,04,38,18.20
2009,07,28,04,39,18.20
2009,07,28,04,40,18.20
2009,07,28,04,41,18.20
2009,07,28,04,42,18.20
2009,07,28,04,43,18.20
2009,07,28,04,44,18.20
2009,07,28,04,45,18.20
2009,07,28,04,46,18.10
2009,07,28,04,47,18.10
2009,07,28,04,48,18.10
2009,07,28,04,49,18.10
2009,07,28,04,50,18.10
2009,07,28,04,51,17.90
2009,07,28,04,52,17.90
2009,07,28,04,53,17.90
2009,07,28,04,54,17.90
2009,07,28,04,55,17.90
2009,07,28,04,56,17.90
2009,07,28,04,57,17.90
2009,07,28,04,58,17.80
2009,07,28,04,59,17.80
2009,07,28,05,00,17.80
2009,07,28,05,01,17.70
2009,07,28,05,02,17.70
2009,07,28,05,03,17.70
2009,07,28,05,04,17.70
2009,07,28,05,05,17.70
2009,07,28,05,06,17.60
2009,07,28,05,07,17.60
2009,07,28,05,08,17.60
2009,07,28,05,09,17.60
2009,07,28,05,10,17.60
2009,07,28,05,11,17.60
2009,07,28,05,12,17.60
2009,07,28,05,13,17.60
2009,07,28,05,14,17.60
2009,07,28,05,15,17.50
2009,07,28,05,16,17.50
2009,07,28,05,17,17.50
2009,07,28,05,18,17.50
2009,07,28,05,19,17.50
2009,07,28,05,20,17.50
2009,07,28,05,21,17.40
2009,07,28,05,22,17.40
2009,07,28,05,23,17.40
2009,07,28,05,24,17.40
2009,07,28,05,25,17.40
2009,07,28,05,26,17.40
2009,07,28,05,27,17.40
2009,07,28,05,28,17.30
2009,07,28,05,29,17.30
2009,07,28,05,30,17.30
2009,07,28,05,31,17.30
2009,07,28,05,32,17.30
2009,07,28,05,33,17.30
2009,07,28,05,34,17.30
2009,07,28,05,35,17.30
2009,07,28,05,36,17.30
2009,07,28,05,37,17.30
2009,07,28,05,38,17.30
2009,07,28,05,39,17.30
2009,07,28,05,40,17.30
2009,07,28,05,41,17.30
2009,07,28,05,42,17.30
2009,07,28,05,43,17.30
2009,07,28,05,44,17.30
2009,07,28,05,45,17.30
2009,07,28,05,46,17.30
2009,07,28,05,47,17.20
2009,07,28,05,48,17.20
2009,07,28,05,49,17.20
2009,07,28,05,50,17.20
2009,07,28,05,51,17.20
2009,07,28,05,52,17.20
2009,07,28,05,53,17.20
2009,07,28,05,54,17.20
2009,07,28,05,55,17.10
2009,07,28,05,56,17.10
2009,07,28,05,57,17.10
2009,07,28,05,58,17.10
2009,07,28,05,59,17.10
2009,07,28,06,00,17.10
2009,07,28,06,01,17.10
2009,07,28,06,02,17.20
2009,07,28,06,03,17.20
2009,07,28,06,04,17.20
2009,07,28,06,05,17.20
2009,07,28,06,06,17.20
2009,07,28,06,07,17.20
2009,07,28,06,08,17.20
2009,07,28,06,09,17.20
2009,07,28,06,10,17.30
2009,07,28,06,11,17.30
2009,07,28,06,12,17.30
2009,07,28,06,13,17.30
2009,07,28,06,14,17.30
2009,07,28,06,15,17.30
2009,07,28,06,16,17.30
2009,07,28,06,17,17.30
2009,07,28,06,18,17.30
2009,07,28,06,19,17.30
2009,07,28,06,20,17.30
2009,07,28,06,21,17.30
2009,07,28,06,22,17.40
2009,07,28,06,23,17.40
2009,07,28,06,24,17.40
2009,07,28,06,25,17.40
2009,07,28,06,26,17.50
2009,07,28,06,27,17.50
2009,07,28,06,28,17.50
2009,07,28,06,29,17.50
2009,07,28,06,30,17.60
2009,07,28,06,31,17.60
2009,07,28,06,32,17.60
2009,07,28,06,33,17.70
2009,07,28,06,34,17.70
2009,07,28,06,35,17.70
2009,07,28,06,36,17.70
2009,07,28,06,37,17.70
2009,07,28,06,38,17.80
2009,07,28,06,39,17.80
2009,07,28,06,40,17.90
2009,07,28,06,41,17.90
2009,07,28,06,42,17.90
2009,07,28,06,43,17.90
2009,07,28,06,44,18.00
2009,07,28,06,45,18.10
2009,07,28,06,46,18.20
2009,07,28,06,47,18.20
2009,07,28,06,48,18.20
2009,07,28,06,49,18.30
2009,07,28,06,50,18.30
2009,07,28,06,51,18.40
2009,07,28,06,52,18.50
2009,07,28,06,53,18.50
2009,07,28,06,54,18.60
2009,07,28,06,55,18.60
2009,07,28,06,56,18.70
2009,07,28,06,57,18.80
2009,07,28,06,58,18.80
2009,07,28,06,59,18.90
2009,07,28,07,00,18.90
2009,07,28,07,01,19.00
2009,07,28,07,02,19.10
2009,07,28,07,03,19.10
2009,07,28,07,04,19.20
2009,07,28,07,05,19.20
2009,07,28,07,06,19.30
2009,07,28,07,07,19.40
2009,07,28,07,08,19.50
2009,07,28,07,09,19.60
2009,07,28,07,10,19.60
2009,07,28,07,11,19.70
2009,07,28,07,12,19.80
2009,07,28,07,13,19.90
2009,07,28,07,14,19.90
2009,07,28,07,15,20.00
2009,07,28,07,16,20.10
2009,07,28,07,17,20.20
2009,07,28,07,18,20.20
2009,07,28,07,19,20.30
2009,07,28,07,20,20.40
2009,07,28,07,21,20.40
2009,07,28,07,22,20.50
2009,07,28,07,23,20.60
2009,07,28,07,24,20.70
2009,07,28,07,25,20.80
2009,07,28,07,26,20.90
2009,07,28,07,27,20.90
2009,07,28,07,28,21.00
2009,07,28,07,29,21.00
2009,07,28,07,30,21.10
2009,07,28,07,31,21.10
2009,07,28,07,32,21.20
2009,07,28,07,33,21.20
2009,07,28,07,34,21.20
2009,07,28,07,35,21.30
2009,07,28,07,36,21.30
2009,07,28,07,37,21.30
2009,07,28,07,38,21.30
2009,07,28,07,39,21.30
2009,07,28,07,40,21.30
2009,07,28,07,41,21.40
2009,07,28,07,42,21.40
2009,07,28,07,43,21.40
2009,07,28,07,44,21.60
2009,07,28,07,45,21.60
2009,07,28,07,46,21.60
2009,07,28,07,47,21.60
2009,07,28,07,48,21.60
2009,07,28,07,49,21.60
2009,07,28,07,50,21.70
2009,07,28,07,51,21.80
2009,07,28,07,52,21.80
2009,07,28,07,53,21.90
2009,07,28,07,54,21.90
2009,07,28,07,55,22.00
2009,07,28,07,56,22.00
2009,07,28,07,57,22.10
2009,07,28,07,58,22.10
2009,07,28,07,59,22.20
2009,07,28,08,00,22.20
2009,07,28,08,01,22.20
2009,07,28,08,02,22.30
2009,07,28,08,03,22.30
2009,07,28,08,04,22.40
2009,07,28,08,05,22.40
2009,07,28,08,06,22.50
2009,07,28,08,07,22.50
2009,07,28,08,08,22.50
2009,07,28,08,09,22.50
2009,07,28,08,10,22.50
2009,07,28,08,11,22.60
2009,07,28,08,12,22.60
2009,07,28,08,13,22.60
2009,07,28,08,14,22.60
2009,07,28,08,15,22.70
2009,07,28,08,16,22.70
2009,07,28,08,17,22.80
2009,07,28,08,18,22.90
2009,07,28,08,19,22.90
2009,07,28,08,20,22.90
2009,07,28,08,21,23.00
2009,07,28,08,22,23.10
2009,07,28,08,23,23.10
2009,07,28,08,24,23.20
2009,07,28,08,25,23.20
2009,07,28,08,26,23.30
2009,07,28,08,27,23.30
2009,07,28,08,28,23.40
2009,07,28,08,29,23.50
2009,07,28,08,30,23.60
2009,07,28,08,31,23.70
2009,07,28,08,32,23.70
2009,07,28,08,33,23.70
2009,07,28,08,34,23.80
2009,07,28,08,35,23.90
2009,07,28,08,36,23.90
2009,07,28,08,37,24.00
2009,07,28,08,38,24.10
2009,07,28,08,39,24.10
2009,07,28,08,40,24.10
2009,07,28,08,41,24.20
2009,07,28,08,42,24.20
2009,07,28,08,43,24.30
2009,07,28,08,44,24.40
2009,07,28,08,45,24.50
2009,07,28,08,46,24.60
2009,07,28,08,47,24.70
2009,07,28,08,48,24.70
2009,07,28,08,49,24.80
2009,07,28,08,50,24.90
2009,07,28,08,51,25.10
2009,07,28,08,52,25.20
2009,07,28,08,53,25.40
2009,07,28,08,54,25.50
2009,07,28,08,55,25.70
2009,07,28,08,56,25.80
2009,07,28,08,57,25.90
2009,07,28,08,58,26.00
2009,07,28,08,59,26.00
2009,07,28,09,00,26.10
2009,07,28,09,01,26.20
2009,07,28,09,02,26.20
2009,07,28,09,03,26.30
2009,07,28,09,04,26.40
2009,07,28,09,05,26.50
2009,07,28,09,06,26.60
2009,07,28,09,07,26.60
2009,07,28,09,08,26.70
2009,07,28,09,09,26.70
2009,07,28,09,10,26.70
2009,07,28,09,11,26.70
2009,07,28,09,12,26.80
2009,07,28,09,13,26.80
2009,07,28,09,14,26.70
2009,07,28,09,15,26.70
2009,07,28,09,16,26.70
2009,07,28,09,17,26.80
2009,07,28,09,18,26.80
2009,07,28,09,19,26.80
2009,07,28,09,20,26.80
2009,07,28,09,21,26.80
2009,07,28,09,22,26.80
2009,07,28,09,23,26.90
2009,07,28,09,24,26.90
2009,07,28,09,25,26.90
2009,07,28,09,26,27.00
2009,07,28,09,27,27.10
2009,07,28,09,28,27.20
2009,07,28,09,29,27.20
2009,07,28,09,30,27.30
2009,07,28,09,31,27.30
2009,07,28,09,32,27.30
2009,07,28,09,33,27.30
2009,07,28,09,34,27.40
2009,07,28,09,35,27.50
2009,07,28,09,36,27.60
2009,07,28,09,37,27.60
2009,07,28,09,38,27.70
2009,07,28,09,39,27.70
2009,07,28,09,40,27.80
2009,07,28,09,41,27.80
2009,07,28,09,42,27.80
2009,07,28,09,43,27.80
2009,07,28,09,44,27.90
2009,07,28,09,45,27.90
2009,07,28,09,46,27.90
2009,07,28,09,47,27.90
2009,07,28,09,48,27.90
2009,07,28,09,49,27.90
2009,07,28,09,50,27.90
2009,07,28,09,51,27.90
2009,07,28,09,52,27.90
2009,07,28,09,53,27.90
2009,07,28,09,54,27.90
2009,07,28,09,55,27.90
2009,07,28,09,56,27.80
2009,07,28,09,57,27.70
2009,07,28,09,58,27.70
2009,07,28,09,59,27.60
2009,07,28,10,00,27.50
2009,07,28,10,01,27.40
2009,07,28,10,02,27.40
2009,07,28,10,03,27.40
2009,07,28,10,04,27.40
2009,07,28,10,05,27.40
2009,07,28,10,06,27.40
2009,07,28,10,07,27.60
2009,07,28,10,08,27.60
2009,07,28,10,09,27.60
2009,07,28,10,10,27.60
2009,07,28,10,11,27.60
2009,07,28,10,12,27.60
2009,07,28,10,13,27.70
2009,07,28,10,14,27.70
2009,07,28,10,15,27.80
2009,07,28,10,16,27.90
2009,07,28,10,17,28.00
2009,07,28,10,18,28.00
2009,07,28,10,19,28.00
2009,07,28,10,20,27.90
2009,07,28,10,21,27.90
2009,07,28,10,22,28.00
2009,07,28,10,23,28.00
2009,07,28,10,24,27.90
2009,07,28,10,25,27.90
2009,07,28,10,26,27.90
2009,07,28,10,27,27.90
2009,07,28,10,28,27.90
2009,07,28,10,29,27.90
2009,07,28,10,30,27.90
2009,07,28,10,31,28.00
2009,07,28,10,32,28.10
2009,07,28,10,33,28.20
2009,07,28,10,34,28.20
2009,07,28,10,35,28.30
2009,07,28,10,36,28.30
2009,07,28,10,37,28.30
2009,07,28,10,38,28.30
2009,07,28,10,39,28.20
2009,07,28,10,40,28.20
2009,07,28,10,41,28.30
2009,07,28,10,42,28.30
2009,07,28,10,43,28.30
2009,07,28,10,44,28.30
2009,07,28,10,45,28.30
2009,07,28,10,46,28.20
2009,07,28,10,47,28.20
2009,07,28,10,48,28.20
2009,07,28,10,49,28.20
2009,07,28,10,50,28.20
2009,07,28,10,51,28.20
2009,07,28,10,52,28.20
2009,07,28,10,53,28.10
2009,07,28,10,54,28.10
2009,07,28,10,55,28.10
2009,07,28,10,56,28.20
2009,07,28,10,57,28.20
2009,07,28,10,58,28.30
2009,07,28,10,59,28.40
2009,07,28,11,00,28.40
2009,07,28,11,01,28.60
2009,07,28,11,02,28.60
2009,07,28,11,03,28.60
2009,07,28,11,04,28.60
2009,07,28,11,05,28.60
2009,07,28,11,06,28.60
2009,07,28,11,07,28.60
2009,07,28,11,08,28.60
2009,07,28,11,09,28.70
2009,07,28,11,10,28.80
2009,07,28,11,11,28.90
2009,07,28,11,12,28.90
2009,07,28,11,13,28.90
2009,07,28,11,14,29.10
2009,07,28,11,15,29.10
2009,07,28,11,16,29.20
2009,07,28,11,17,29.30
2009,07,28,11,18,29.40
2009,07,28,11,19,29.40
2009,07,28,11,20,29.40
2009,07,28,11,21,29.40
2009,07,28,11,22,29.40
2009,07,28,11,23,29.40
2009,07,28,11,24,29.40
2009,07,28,11,25,29.50
2009,07,28,11,26,29.50
2009,07,28,11,27,29.50
2009,07,28,11,28,29.30
2009,07,28,11,29,29.30
2009,07,28,11,30,29.20
2009,07,28,11,31,29.20
2009,07,28,11,32,29.20
2009,07,28,11,33,29.20
2009,07,28,11,34,29.20
2009,07,28,11,35,29.30
2009,07,28,11,36,29.40
2009,07,28,11,37,29.50
2009,07,28,11,38,29.50
2009,07,28,11,39,29.60
2009,07,28,11,40,29.80
2009,07,28,11,41,29.90
2009,07,28,11,42,29.90
2009,07,28,11,43,30.00
2009,07,28,11,44,30.10
2009,07,28,11,45,30.10
2009,07,28,11,46,30.10
2009,07,28,11,47,30.20
2009,07,28,11,48,30.20
2009,07,28,11,49,30.20
2009,07,28,11,50,30.10
2009,07,28,11,51,30.10
2009,07,28,11,52,30.20
2009,07,28,11,53,30.20
2009,07,28,11,54,30.30
2009,07,28,11,55,30.40
2009,07,28,11,56,30.40
2009,07,28,11,57,30.40
2009,07,28,11,58,30.50
2009,07,28,11,59,30.60
2009,07,28,12,00,30.60
2009,07,28,12,01,30.70
2009,07,28,12,02,30.70
2009,07,28,12,03,30.70
2009,07,28,12,04,30.70
2009,07,28,12,05,30.70
2009,07,28,12,06,30.70
2009,07,28,12,07,30.70
2009,07,28,12,08,30.90
2009,07,28,12,09,30.90
2009,07,28,12,10,30.90
2009,07,28,12,11,30.90
2009,07,28,12,12,30.80
2009,07,28,12,13,30.80
2009,07,28,12,14,30.70
2009,07,28,12,15,30.70
2009,07,28,12,16,30.60
2009,07,28,12,17,30.60
2009,07,28,12,18,30.70
2009,07,28,12,19,30.60
2009,07,28,12,20,30.60
2009,07,28,12,21,30.60
2009,07,28,12,22,30.60
2009,07,28,12,23,30.60
2009,07,28,12,24,30.60
2009,07,28,12,25,30.60
2009,07,28,12,26,30.70
2009,07,28,12,27,30.80
2009,07,28,12,28,30.90
2009,07,28,12,29,31.00
2009,07,28,12,30,31.00
2009,07,28,12,31,31.10
2009,07,28,12,32,31.00
2009,07,28,12,33,31.00
2009,07,28,12,34,31.00
2009,07,28,12,35,31.00
2009,07,28,12,36,31.00
2009,07,28,12,37,31.00
2009,07,28,12,38,31.10
2009,07,28,12,39,31.10
2009,07,28,12,40,31.10
2009,07,28,12,41,31.20
2009,07,28,12,42,31.20
2009,07,28,12,43,31.30
2009,07,28,12,44,31.40
2009,07,28,12,45,31.40
2009,07,28,12,46,31.60
2009,07,28,12,47,31.60
2009,07,28,12,48,31.70
2009,07,28,12,49,31.70
2009,07,28,12,50,31.70
2009,07,28,12,51,31.70
2009,07,28,12,52,31.80
2009,07,28,12,53,31.80
2009,07,28,12,54,31.70
2009,07,28,12,55,31.70
2009,07,28,12,56,31.70
2009,07,28,12,57,31.60
2009,07,28,12,58,31.60
2009,07,28,12,59,31.60
2009,07,28,13,00,31.60
2009,07,28,13,01,31.70
2009,07,28,13,02,31.70
2009,07,28,13,03,31.80
2009,07,28,13,04,31.80
2009,07,28,13,05,31.90
2009,07,28,13,06,32.00
2009,07,28,13,07,32.10
2009,07,28,13,08,32.10
2009,07,28,13,09,32.10
2009,07,28,13,10,32.10
2009,07,28,13,11,32.10
2009,07,28,13,12,32.20
2009,07,28,13,13,32.20
2009,07,28,13,14,32.20
2009,07,28,13,15,32.10
2009,07,28,13,16,32.10
2009,07,28,13,17,32.20
2009,07,28,13,18,32.30
2009,07,28,13,19,32.30
2009,07,28,13,20,32.40
2009,07,28,13,21,32.50
2009,07,28,13,22,32.60
2009,07,28,13,23,32.60
2009,07,28,13,24,32.50
2009,07,28,13,25,32.50
2009,07,28,13,26,32.60
2009,07,28,13,27,32.60
2009,07,28,13,28,32.70
2009,07,28,13,29,32.80
2009,07,28,13,30,32.80
2009,07,28,13,31,32.90
2009,07,28,13,32,33.00
2009,07,28,13,33,33.00
2009,07,28,13,34,33.00
2009,07,28,13,35,33.00
2009,07,28,13,36,33.00
2009,07,28,13,37,33.00
2009,07,28,13,38,33.10
2009,07,28,13,39,33.10
2009,07,28,13,40,33.20
2009,07,28,13,41,33.20
2009,07,28,13,42,33.20
2009,07,28,13,43,33.20
2009,07,28,13,44,33.20
2009,07,28,13,45,33.20
2009,07,28,13,46,33.20
2009,07,28,13,47,33.20
2009,07,28,13,48,32.90
2009,07,28,13,49,32.50
2009,07,28,13,50,32.10
2009,07,28,13,51,31.80
2009,07,28,13,52,31.50
2009,07,28,13,53,31.40
2009,07,28,13,54,31.20
2009,07,28,13,55,31.20
2009,07,28,13,56,31.30
2009,07,28,13,57,31.30
2009,07,28,13,58,31.30
2009,07,28,13,59,31.20
2009,07,28,14,00,31.10
2009,07,28,14,01,31.00
2009,07,28,14,02,30.80
2009,07,28,14,03,30.80
2009,07,28,14,04,30.80
2009,07,28,14,05,30.70
2009,07,28,14,06,30.70
2009,07,28,14,07,30.60
2009,07,28,14,08,30.50
2009,07,28,14,09,30.40
2009,07,28,14,10,30.40
2009,07,28,14,11,30.40
2009,07,28,14,12,30.40
2009,07,28,14,13,30.40
2009,07,28,14,14,30.30
2009,07,28,14,15,30.30
2009,07,28,14,16,30.30
2009,07,28,14,17,30.20
2009,07,28,14,18,30.20
2009,07,28,14,19,30.10
2009,07,28,14,20,29.90
2009,07,28,14,21,29.90
2009,07,28,14,22,29.80
2009,07,28,14,23,29.80
2009,07,28,14,24,29.80
2009,07,28,14,25,29.90
2009,07,28,14,26,30.10
2009,07,28,14,27,30.10
2009,07,28,14,28,30.10
2009,07,28,14,29,30.20
2009,07,28,14,30,30.30
2009,07,28,14,31,30.40
2009,07,28,14,32,30.50
2009,07,28,14,33,30.70
2009,07,28,14,34,30.90
2009,07,28,14,35,31.00
2009,07,28,14,36,31.00
2009,07,28,14,37,30.90
2009,07,28,14,38,30.90
2009,07,28,14,39,30.90
2009,07,28,14,40,30.90
2009,07,28,14,41,30.90
2009,07,28,14,42,30.80
2009,07,28,14,43,30.70
2009,07,28,14,44,30.60
2009,07,28,14,45,30.70
2009,07,28,14,46,30.70
2009,07,28,14,47,30.80
2009,07,28,14,48,30.80
2009,07,28,14,49,30.90
2009,07,28,14,50,30.90
2009,07,28,14,51,31.00
2009,07,28,14,52,30.90
2009,07,28,14,53,30.90
2009,07,28,14,54,30.90
2009,07,28,14,55,30.90
2009,07,28,14,56,30.90
2009,07,28,14,57,31.00
2009,07,28,14,58,31.10
2009,07,28,14,59,31.20
2009,07,28,15,00,31.20
2009,07,28,15,01,31.40
2009,07,28,15,02,31.50
2009,07,28,15,03,31.70
2009,07,28,15,04,31.80
2009,07,28,15,05,31.90
2009,07,28,15,06,31.90
2009,07,28,15,07,31.70
2009,07,28,15,08,31.50
2009,07,28,15,09,31.40
2009,07,28,15,10,31.40
2009,07,28,15,11,31.20
2009,07,28,15,12,31.10
2009,07,28,15,13,31.10
2009,07,28,15,14,31.10
2009,07,28,15,15,31.10
2009,07,28,15,16,31.00
2009,07,28,15,17,30.90
2009,07,28,15,18,30.80
2009,07,28,15,19,30.70
2009,07,28,15,20,30.60
2009,07,28,15,21,30.60
2009,07,28,15,22,30.60
2009,07,28,15,23,30.50
2009,07,28,15,24,30.30
2009,07,28,15,25,30.00
2009,07,28,15,26,29.90
2009,07,28,15,27,29.90
2009,07,28,15,28,29.90
2009,07,28,15,29,29.90
2009,07,28,15,30,29.80
2009,07,28,15,31,29.90
2009,07,28,15,32,30.00
2009,07,28,15,33,30.10
2009,07,28,15,34,30.00
2009,07,28,15,35,29.90
2009,07,28,15,36,29.80
2009,07,28,15,37,29.70
2009,07,28,15,38,29.80
2009,07,28,15,39,29.80
2009,07,28,15,40,29.60
2009,07,28,15,41,29.60
2009,07,28,15,42,29.50
2009,07,28,15,43,29.50
2009,07,28,15,44,29.40
2009,07,28,15,45,29.50
2009,07,28,15,46,29.50
2009,07,28,15,47,29.60
2009,07,28,15,48,29.60
2009,07,28,15,49,29.70
2009,07,28,15,50,29.70
2009,07,28,15,51,29.80
2009,07,28,15,52,29.90
2009,07,28,15,53,30.10
2009,07,28,15,54,30.20
2009,07,28,15,55,30.30
2009,07,28,15,56,30.30
2009,07,28,15,57,30.40
2009,07,28,15,58,30.50
2009,07,28,15,59,30.70
2009,07,28,16,00,30.80
2009,07,28,16,01,30.90
2009,07,28,16,02,30.90
2009,07,28,16,03,30.90
2009,07,28,16,04,30.90
2009,07,28,16,05,30.90
2009,07,28,16,06,30.90
2009,07,28,16,07,30.90
2009,07,28,16,08,30.90
2009,07,28,16,09,30.80
2009,07,28,16,10,30.80
2009,07,28,16,11,30.80
2009,07,28,16,12,30.80
2009,07,28,16,13,30.80
2009,07,28,16,14,30.80
2009,07,28,16,15,30.70
2009,07,28,16,16,30.60
2009,07,28,16,17,30.50
2009,07,28,16,18,30.30
2009,07,28,16,19,30.30
2009,07,28,16,20,30.10
2009,07,28,16,21,30.10
2009,07,28,16,22,30.00
2009,07,28,16,23,29.90
2009,07,28,16,24,29.90
2009,07,28,16,25,29.90
2009,07,28,16,26,29.90
2009,07,28,16,27,29.90
2009,07,28,16,28,29.80
2009,07,28,16,29,29.90
2009,07,28,16,30,29.90
2009,07,28,16,31,29.90
2009,07,28,16,32,30.10
2009,07,28,16,33,30.10
2009,07,28,16,34,30.20
2009,07,28,16,35,30.30
2009,07,28,16,36,30.40
2009,07,28,16,37,30.60
2009,07,28,16,38,30.60
2009,07,28,16,39,30.60
2009,07,28,16,40,30.60
2009,07,28,16,41,30.70
2009,07,28,16,42,30.70
2009,07,28,16,43,30.80
2009,07,28,16,44,30.80
2009,07,28,16,45,30.90
2009,07,28,16,46,30.90
2009,07,28,16,47,31.00
2009,07,28,16,48,31.00
2009,07,28,16,49,30.90
2009,07,28,16,50,30.80
2009,07,28,16,51,30.80
2009,07,28,16,52,30.90
2009,07,28,16,53,31.00
2009,07,28,16,54,31.20
2009,07,28,16,55,31.30
2009,07,28,16,56,31.40
2009,07,28,16,57,31.40
2009,07,28,16,58,31.40
2009,07,28,16,59,31.40
2009,07,28,17,00,31.40
2009,07,28,17,01,31.30
2009,07,28,17,02,31.30
2009,07,28,17,03,31.20
2009,07,28,17,04,31.20
2009,07,28,17,05,31.10
2009,07,28,17,06,31.10
2009,07,28,17,07,30.90
2009,07,28,17,08,30.90
2009,07,28,17,09,30.80
2009,07,28,17,10,30.80
2009,07,28,17,11,30.80
2009,07,28,17,12,30.80
2009,07,28,17,13,30.70
2009,07,28,17,14,30.70
2009,07,28,17,15,30.70
2009,07,28,17,16,30.70
2009,07,28,17,17,30.70
2009,07,28,17,18,30.70
2009,07,28,17,19,30.60